TimeWEST,TemperatureF,Dew PointF,Humidity,Sea Level PressureIn,VisibilityMPH,Wind Direction,Wind SpeedMPH,Gust SpeedMPH,PrecipitationIn,Events,Conditions,WindDirDegrees,DateUTC
12:00 AM,60.8,50.0,68,29.80,-9999.0,WSW,5.8,-,N/A,,Clear,250,2013-05-15 23:00:00
1:00 AM,59,48,58,29.82,6,Calm,Calm,,,,,,2013-05-16 00:00:00
1:00 AM,59.0,48.2,67,29.80,-9999.0,Calm,Calm,-,N/A,,Clear,0,2013-05-16 00:00:00
2:00 AM,57.2,48.2,72,29.80,-9999.0,Calm,Calm,-,N/A,,Clear,0,2013-05-16 01:00:00
3:00 AM,55.4,48.2,77,29.80,-9999.0,Calm,Calm,-,N/A,,Unknown,0,2013-05-16 02:00:00
4:00 AM,61,51,62,29.79,6,WSW,6.9,,,,,250,2013-05-16 03:00:00
4:00 AM,60.8,51.8,72,29.77,-9999.0,WSW,6.9,-,N/A,,Unknown,250,2013-05-16 03:00:00
5:00 AM,60.8,53.6,77,29.77,-9999.0,WSW,6.9,-,N/A,,Clear,250,2013-05-16 04:00:00
6:00 AM,59.0,55.4,88,29.77,-9999.0,SW,6.9,-,N/A,,Clear,230,2013-05-16 05:00:00
7:00 AM,58,55,85,29.79,6,South,4.6,,,,Scattered Clouds,190,2013-05-16 06:00:00
7:00 AM,59.0,55.4,88,29.77,6.2,South,4.6,-,N/A,,Scattered Clouds,190,2013-05-16 06:00:00
8:00 AM,64.4,53.6,68,29.80,6.2,West,11.5,-,N/A,,Mostly Cloudy,270,2013-05-16 07:00:00
9:00 AM,68.0,50.0,52,29.80,6.2,West,17.3,-,N/A,,Partly Cloudy,280,2013-05-16 08:00:00
10:00 AM,67,48,39,29.82,6,West,18.4,,,,Scattered Clouds,260,2013-05-16 09:00:00
10:00 AM,68.0,48.2,49,29.80,6.2,West,18.4,-,N/A,,Partly Cloudy,260,2013-05-16 09:00:00
11:00 AM,69.8,46.4,43,29.83,6.2,West,19.6,-,N/A,,Partly Cloudy,270,2013-05-16 10:00:00
12:00 PM,71.6,44.6,38,29.80,6.2,West,18.4,-,N/A,,Partly Cloudy,260,2013-05-16 11:00:00
1:00 PM,73,44,25,29.81,6,West,18.4,,,,Scattered Clouds,260,2013-05-16 12:00:00
1:00 PM,73.4,44.6,36,29.80,6.2,West,18.4,-,N/A,,Partly Cloudy,260,2013-05-16 12:00:00
2:00 PM,73.4,41.0,31,29.77,6.2,West,23.0,-,N/A,,Partly Cloudy,270,2013-05-16 13:00:00
3:00 PM,73.4,41.0,31,29.77,6.2,West,19.6,-,N/A,,Partly Cloudy,260,2013-05-16 14:00:00
4:00 PM,72,42,23,29.78,6,WSW,19.6,,,,Scattered Clouds,250,2013-05-16 15:00:00
4:00 PM,71.6,42.8,35,29.77,6.2,WSW,19.6,-,N/A,,Partly Cloudy,250,2013-05-16 15:00:00
5:00 PM,71.6,44.6,38,29.77,6.2,WSW,17.3,-,N/A,,Unknown,250,2013-05-16 16:00:00
6:00 PM,69.8,46.4,43,29.74,-9999.0,SW,13.8,-,N/A,,Clear,230,2013-05-16 17:00:00
7:00 PM,70,46,32,29.77,6,SW,10.4,,,,,220,2013-05-16 18:00:00
7:00 PM,69.8,46.4,43,29.77,-9999.0,SW,10.4,-,N/A,,Clear,220,2013-05-16 18:00:00
8:00 PM,66.2,48.2,52,29.77,6.2,South,12.7,-,N/A,,Partly Cloudy,180,2013-05-16 19:00:00
9:00 PM,62.6,48.2,59,29.77,-9999.0,South,11.5,-,N/A,,Unknown,180,2013-05-16 20:00:00
10:00 PM,60,50,60,29.83,,South,11.5,,,,,170,2013-05-16 21:00:00
10:00 PM,60.8,50.0,68,29.83,-9999.0,South,11.5,-,N/A,,Unknown,170,2013-05-16 21:00:00
11:00 PM,59.0,50.0,72,29.83,-9999.0,South,8.1,-,N/A,,Unknown,170,2013-05-16 22:00:00